EW9994 Weather Reports


time (UTC)temp
C
wind
direction
speed
KPH
gust
KPH
rain 1hr
cm
rain 24hr
cm
rain mn
cm
humidity
%
barometer
mb
20200220083920 6 41 9.7 14.5 0.00 0.00 0.00 76 1026.0
20200220083421 6 40 9.7 14.5 0.00 0.00 0.00 78 1026.1
20200220081921 5 39 4.8 4.8 0.00 0.00 0.00 77 1026.2
20200220081421 5 38 1.6 4.8 0.00 0.00 0.00 77 1026.1
20200220080921 5 38 3.2 4.8 0.00 0.00 0.00 76 1026.0
20200220080421 5 61 1.6 4.8 0.00 0.00 0.00 77 1025.9
20200220074422 5 335 0.0 1.6 0.00 0.00 0.00 75 1025.6
20200220073920 5 334 0.0 1.6 0.00 0.00 0.00 73 1025.6
20200220071421 5 26 14.5 19.3 0.00 0.00 0.00 69 1025.2
20200220070921 5 31 14.5 19.3 0.00 0.00 0.00 70 1025.2
20200220070420 5 28 14.5 20.9 0.00 0.00 0.00 71 1025.2
20200220064921 4 18 17.7 22.5 0.00 0.00 0.00 73 1025.1
20200220063920 4 28 11.3 19.3 0.00 0.00 0.00 74 1025.1
20200220063420 4 24 12.9 19.3 0.00 0.00 0.00 74 1025.0
20200220060921 4 29 11.3 16.1 0.00 0.00 0.00 71 1024.7
20200220060420 4 31 14.5 16.1 0.00 0.00 0.00 72 1024.6
20200220054921 5 33 11.3 14.5 0.00 0.00 0.00 71 1024.5
20200220054421 4 28 9.7 14.5 0.00 0.00 0.00 72 1024.5
20200220053920 4 33 11.3 16.1 0.00 0.00 0.00 72 1024.5
20200220053420 4 31 11.3 14.5 0.00 0.00 0.00 73 1024.5
20200220051920 5 34 8.0 11.3 0.00 0.00 0.00 72 1024.5
20200220051421 5 18 8.0 12.9 0.00 0.00 0.00 72 1024.4
20200220050921 5 30 11.3 16.1 0.00 0.00 0.00 73 1024.4
20200220050420 5 34 11.3 19.3 0.00 0.00 0.00 73 1024.4
20200220044920 5 31 11.3 14.5 0.00 0.00 0.00 74 1024.3
20200220043920 5 34 9.7 14.5 0.00 0.00 0.00 74 1024.3
20200220041921 5 34 8.0 11.3 0.00 0.00 0.00 77 1024.2
20200220041421 5 27 9.7 12.9 0.00 0.00 0.00 78 1024.2
20200220040920 5 32 9.7 11.3 0.00 0.00 0.00 78 1024.1
20200220040421 5 27 8.0 11.3 0.00 0.00 0.00 78 1024.1
20200220034421 5 28 6.4 8.0 0.00 0.00 0.00 77 1023.9
20200220033920 5 22 4.8 9.7 0.00 0.00 0.00 78 1023.9
20200220033421 5 26 6.4 12.9 0.00 0.00 0.00 79 1023.9
20200220031921 5 21 4.8 9.7 0.00 0.00 0.00 79 1023.8
20200220031421 5 41 6.4 11.3 0.00 0.00 0.00 79 1023.7
20200220030921 5 51 6.4 12.9 0.00 0.00 0.00 78 1023.7
20200220030420 5 21 9.7 16.1 0.00 0.00 0.00 78 1023.5
20200220024920 5 33 9.7 14.5 0.00 0.00 0.00 79 1023.4
20200220024420 5 25 9.7 14.5 0.00 0.00 0.00 80 1023.3
20200220023920 5 35 12.9 19.3 0.00 0.00 0.00 80 1023.3
20200220023420 5 34 11.3 19.3 0.00 0.00 0.00 80 1023.3
20200220021421 5 28 3.2 4.8 0.00 0.00 0.00 80 1023.2
20200220020921 5 60 0.0 1.6 0.00 0.00 0.00 79 1023.2
20200220020420 5 60 0.0 4.8 0.00 0.00 0.00 79 1023.2
20200220014920 6 60 1.6 1.6 0.00 0.00 0.00 76 1023.1
20200220014420 6 59 0.0 1.6 0.00 0.00 0.00 74 1023.1
20200220013920 6 59 0.0 1.6 0.00 0.00 0.00 72 1023.1
20200220013420 7 60 1.6 11.3 0.00 0.00 0.00 72 1023.1
20200220011422 7 30 11.3 14.5 0.00 0.00 0.00 73 1023.0
20200220004921 6 31 9.7 14.5 0.00 0.00 0.00 75 1023.0
20200220004420 6 34 9.7 14.5 0.00 0.00 0.00 75 1022.9
20200220003420 6 28 9.7 16.1 0.00 0.00 0.00 76 1022.9
20200220001920 6 28 8.0 12.9 0.00 0.00 0.00 81 1022.8
20200220001420 5 36 4.8 11.3 0.00 0.00 0.00 81 1022.8
20200220000920 6 40 1.6 4.8 0.00 0.00 0.00 80 1022.9
20200220000420 6 66 3.2 4.8 0.00 0.00 0.00 80 1022.9
20200219234920 6 50 1.6 12.9 0.00 0.00 0.00 78 1022.7
20200219231920 6 22 11.3 16.1 0.00 0.00 0.00 81 1022.4
20200219231420 6 18 9.7 14.5 0.00 0.00 0.00 82 1022.4
20200219230921 6 21 9.7 19.3 0.00 0.00 0.00 83 1022.3
20200219230420 6 22 12.9 19.3 0.00 0.00 0.00 84 1022.3
20200219224420 6 16 6.4 14.5 0.00 0.00 0.00 86 1022.1
20200219223921 6 39 11.3 16.1 0.00 0.00 0.00 86 1022.0
20200219221421 6 25 11.3 14.5 0.00 0.00 0.00 87 1021.8
20200219220920 6 45 6.4 14.5 0.00 0.00 0.00 88 1021.6
20200219220420 6 9 11.3 16.1 0.00 0.00 0.00 87 1021.6
20200219214920 6 32 9.7 14.5 0.00 0.00 0.00 89 1021.5
20200219214420 6 41 9.7 11.3 0.00 0.00 0.00 89 1021.5
20200219213920 7 15 6.4 11.3 0.00 0.00 0.00 90 1021.6
20200219213421 7 23 9.7 12.9 0.00 0.00 0.00 90 1021.6
20200219211420 7 17 6.4 11.3 0.00 0.00 0.00 91 1021.5
20200219210920 7 58 6.4 9.7 0.00 0.00 0.00 91 1021.3
20200219210420 7 6 0.0 9.7 0.00 0.00 0.00 91 1021.3
20200219204920 7 45 1.6 9.7 0.00 0.00 0.00 91 1021.2
20200219204420 7 355 8.0 9.7 0.00 0.00 0.00 91 1021.1
20200219203920 7 22 6.4 9.7 0.00 0.00 0.00 91 1021.1
20200219203420 7 57 3.2 12.9 0.00 0.00 0.00 91 1021.1
20200219201923 7 39 3.2 9.7 0.00 0.00 0.00 91 1021.0
20200219201422 7 334 4.8 9.7 0.00 0.00 0.00 91 1020.8
20200219200422 7 56 1.6 11.3 0.00 0.00 0.00 91 1020.8
20200219194420 8 47 6.4 9.7 0.00 0.00 0.00 91 1020.5
20200219191920 8 27 8.0 12.9 0.00 0.00 0.00 91 1020.5
20200219191420 8 43 8.0 14.5 0.00 0.00 0.00 91 1020.4
20200219190919 8 16 9.7 14.5 0.00 0.00 0.00 91 1020.4
20200219190420 8 46 11.3 14.5 0.00 0.00 0.00 91 1020.3
20200219184920 8 20 9.7 14.5 0.00 0.00 0.00 91 1020.3
20200219184419 8 32 8.0 11.3 0.00 0.00 0.00 90 1020.2
20200219183920 8 34 8.0 12.9 0.00 0.00 0.00 90 1020.1
20200219183419 8 31 8.0 12.9 0.00 0.00 0.00 90 1020.1
20200219181920 9 18 4.8 8.0 0.00 0.00 0.00 89 1020.1
20200219181420 9 20 4.8 8.0 0.00 0.00 0.00 89 1020.0
20200219180920 9 29 4.8 8.0 0.00 0.00 0.00 88 1019.9
20200219174920 10 34 4.8 4.8 0.00 0.00 0.00 86 1019.7
20200219174420 10 40 3.2 4.8 0.00 0.00 0.00 86 1019.7
20200219171920 11 44 3.2 4.8 0.00 0.00 0.00 85 1019.3
20200219171420 11 44 3.2 9.7 0.00 0.00 0.00 84 1019.1
20200219170419 11 177 0.0 4.8 0.00 0.00 0.00 83 1019.1
20200219163920 11 181 1.6 4.8 0.00 0.00 0.00 81 1018.8
20200219163419 11 172 3.2 8.0 0.00 0.00 0.00 81 1018.7
20200219161920 12 202 3.2 8.0 0.00 0.00 0.00 80 1018.5
20200219160920 12 200 9.7 19.3 0.00 0.00 0.00 80 1018.4
20200219160421 12 190 8.0 14.5 0.00 0.00 0.00 79 1018.4
20200219154919 12 212 8.0 14.5 0.00 0.00 0.00 79 1018.3
20200219154420 12 200 4.8 11.3 0.00 0.00 0.00 79 1018.3
20200219153920 12 175 8.0 12.9 0.00 0.00 0.00 78 1018.3
20200219153419 12 199 8.0 12.9 0.00 0.00 0.00 78 1018.3
20200219151419 13 224 6.4 14.5 0.00 0.00 0.00 77 1018.4
20200219150419 13 201 9.7 19.3 0.00 0.00 0.00 76 1018.5
20200219144920 13 214 16.1 19.3 0.00 0.00 0.00 75 1018.5
20200219143920 13 234 8.0 19.3 0.00 0.00 0.00 74 1018.5
20200219143419 13 208 9.7 16.1 0.00 0.00 0.00 74 1018.6
20200219141919 13 136 1.6 4.8 0.00 0.00 0.00 74 1018.6
20200219141420 13 91 3.2 4.8 0.00 0.00 0.00 73 1018.6
20200219140919 13 120 4.8 8.0 0.00 0.00 0.00 73 1018.7
20200219140420 13 135 1.6 4.8 0.00 0.00 0.00 73 1018.8
20200219134919 13 241 0.0 3.2 0.00 0.00 0.00 73 1019.0
20200219134419 13 257 1.6 3.2 0.00 0.00 0.00 74 1019.0
20200219131919 13 236 1.6 4.8 0.00 0.00 0.00 74 1019.3
20200219131420 13 238 1.6 3.2 0.00 0.00 0.00 76 1019.4
20200219130921 13 238 0.0 1.6 0.00 0.00 0.00 76 1019.4
20200219130420 12 238 0.0 3.2 0.00 0.00 0.00 76 1019.5
20200219124420 12 188 4.8 4.8 0.00 0.00 0.00 77 1019.8
20200219123920 12 194 1.6 4.8 0.00 0.00 0.00 78 1019.9
20200219123420 12 220 1.6 4.8 0.00 0.00 0.00 79 1020.0
20200219121920 12 240 4.8 8.0 0.00 0.00 0.00 80 1020.2
20200219121422 12 167 1.6 4.8 0.00 0.00 0.00 81 1020.2
20200219120921 12 236 3.2 4.8 0.00 0.03 0.00 81 1020.4
20200219120420 12 223 3.2 9.7 0.00 0.03 0.00 81 1020.4
20200219114920 12 214 4.8 8.0 0.00 0.03 0.00 81 1020.5
20200219113921 12 214 3.2 8.0 0.00 0.03 0.00 82 1020.5
20200219113420 12 217 1.6 9.7 0.00 0.03 0.00 84 1020.6
20200219111920 12 140 3.2 4.8 0.00 0.03 0.00 85 1021.0
20200219110920 11 241 3.2 4.8 0.00 0.03 0.00 86 1021.2
20200219110419 11 220 4.8 11.3 0.00 0.03 0.00 87 1021.3
20200219103420 10 8 0.0 3.2 0.00 0.03 0.00 94 1021.7
20200219101920 10 307 0.0 4.8 0.00 0.03 0.00 94 1021.8
20200219101420 9 308 3.2 8.0 0.00 0.03 0.00 94 1021.8
20200219100419 9 296 1.6 4.8 0.00 0.03 0.00 95 1021.9
20200219094920 8 252 4.8 4.8 0.00 0.03 0.00 94 1022.0
20200219094420 8 264 4.8 9.7 0.00 0.03 0.00 94 1022.0
20200219093920 9 252 4.8 8.0 0.00 0.05 0.00 94 1022.0
20200219091920 8 127 0.0 4.8 0.00 0.05 0.00 95 1021.9
20200219090920 8 223 3.2 8.0 0.00 0.05 0.00 95 1022.1
20200219084920 8 249 8.0 11.3 0.00 0.08 0.00 95 1022.2
20200219084420 8 241 6.4 8.0 0.00 0.10 0.00 94 1022.2